Time,TemperatureF,DewpointF,PressureIn,WindDirection,WindDirectionDegrees,WindSpeedMPH,WindSpeedGustMPH,Humidity,HourlyPrecipIn,Conditions,Clouds,dailyrainin,SoftwareType,DateUTC
2017-03-28 00:00:00,72.7,72.4,29.89,SE,141,1.0,1.0,99,0.00,,,0.00,Wunderground v.1.15,2017-03-28 05:00:00,
2017-03-28 00:10:00,72.9,72.6,29.89,SE,127,0.0,4.0,99,0.00,,,0.00,Wunderground v.1.15,2017-03-28 05:10:00,
2017-03-28 00:20:00,73.0,72.4,29.89,SE,124,0.0,4.0,98,0.00,,,0.00,Wunderground v.1.15,2017-03-28 05:20:00,
2017-03-28 00:25:00,73.1,72.5,29.89,South,188,0.0,4.0,98,0.00,,,0.00,Wunderground v.1.15,2017-03-28 05:25:00,
2017-03-28 00:35:00,73.2,72.6,29.89,ESE,122,0.0,4.0,98,0.00,,,0.00,Wunderground v.1.15,2017-03-28 05:35:00,
2017-03-28 00:45:00,73.3,72.7,29.89,SE,128,1.0,4.0,98,0.00,,,0.00,Wunderground v.1.15,2017-03-28 05:45:00,
2017-03-28 00:55:00,73.2,72.6,29.89,ESE,110,2.0,4.0,98,0.00,,,0.00,Wunderground v.1.15,2017-03-28 05:55:00,
2017-03-28 01:00:00,73.3,72.7,29.89,SE,137,1.0,4.0,98,0.00,,,0.00,Wunderground v.1.15,2017-03-28 06:00:00,
2017-03-28 01:05:00,73.3,72.7,29.89,SE,134,1.0,4.0,98,0.00,,,0.00,Wunderground v.1.15,2017-03-28 06:05:00,
2017-03-28 01:10:00,73.3,72.7,29.89,SE,134,1.0,1.0,98,0.00,,,0.00,Wunderground v.1.15,2017-03-28 06:10:00,
2017-03-28 01:20:00,73.3,72.7,29.89,SE,146,1.0,1.0,98,0.00,,,0.00,Wunderground v.1.15,2017-03-28 06:20:00,
2017-03-28 01:30:00,73.3,72.7,29.89,SE,128,0.0,4.0,98,0.00,,,0.00,Wunderground v.1.15,2017-03-28 06:30:00,
2017-03-28 01:35:00,73.3,72.7,29.89,ESE,118,0.0,4.0,98,0.00,,,0.00,Wunderground v.1.15,2017-03-28 06:35:00,
2017-03-28 01:40:00,73.3,72.7,29.89,SSE,158,1.0,4.0,98,0.00,,,0.00,Wunderground v.1.15,2017-03-28 06:40:00,
2017-03-28 01:45:00,73.3,72.7,29.89,SSE,158,1.0,4.0,98,0.00,,,0.00,Wunderground v.1.15,2017-03-28 06:45:00,
2017-03-28 01:55:00,73.3,72.4,29.88,South,179,1.0,4.0,97,0.00,,,0.00,Wunderground v.1.15,2017-03-28 06:55:00,
2017-03-28 02:05:00,73.3,72.4,29.88,SE,146,1.0,2.0,97,0.00,,,0.00,Wunderground v.1.15,2017-03-28 07:05:00,
2017-03-28 02:10:00,73.4,72.5,29.88,SE,129,1.0,4.0,97,0.00,,,0.00,Wunderground v.1.15,2017-03-28 07:10:00,
2017-03-28 02:15:00,73.4,72.5,29.88,SSW,210,1.0,4.0,97,0.00,,,0.00,Wunderground v.1.15,2017-03-28 07:15:00,
2017-03-28 02:20:00,73.4,72.5,29.88,South,191,1.0,1.0,97,0.00,,,0.00,Wunderground v.1.15,2017-03-28 07:20:00,
2017-03-28 02:30:00,73.5,72.6,29.88,SE,134,0.0,4.0,97,0.00,,,0.00,Wunderground v.1.15,2017-03-28 07:30:00,
2017-03-28 02:40:00,73.5,72.6,29.88,SE,143,1.0,4.0,97,0.00,,,0.00,Wunderground v.1.15,2017-03-28 07:40:00,
2017-03-28 02:45:00,73.5,72.6,29.88,SSE,147,0.0,4.0,97,0.00,,,0.00,Wunderground v.1.15,2017-03-28 07:45:00,
2017-03-28 02:50:00,73.5,72.6,29.88,SE,137,1.0,1.0,97,0.00,,,0.00,Wunderground v.1.15,2017-03-28 07:50:00,
2017-03-28 02:55:00,73.5,72.6,29.88,SE,141,1.0,4.0,97,0.00,,,0.00,Wunderground v.1.15,2017-03-28 07:55:00,
2017-03-28 03:00:00,73.5,72.6,29.88,SE,126,1.0,1.0,97,0.00,,,0.00,Wunderground v.1.15,2017-03-28 08:00:00,
2017-03-28 03:05:00,73.5,72.6,29.87,East,93,1.0,4.0,97,0.00,,,0.00,Wunderground v.1.15,2017-03-28 08:05:00,
2017-03-28 03:15:00,73.5,72.6,29.87,SE,127,0.0,4.0,97,0.00,,,0.00,Wunderground v.1.15,2017-03-28 08:15:00,
2017-03-28 03:20:00,73.4,72.5,29.87,SE,139,0.0,4.0,97,0.00,,,0.00,Wunderground v.1.15,2017-03-28 08:20:00,
2017-03-28 03:25:00,73.4,72.5,29.87,SSE,151,0.0,4.0,97,0.00,,,0.00,Wunderground v.1.15,2017-03-28 08:25:00,
2017-03-28 03:30:00,73.4,72.5,29.87,SE,124,0.0,4.0,97,0.00,,,0.00,Wunderground v.1.15,2017-03-28 08:30:00,